Wind_Speed
42 40 40 41 42 43 42 40 38 36 35 37 37 35 33 32 31 31 30 29 29 30 31 30 28 26 24 24 25 26 26 26 26 25 24 23 22 22 21 21 22 23 24 25 25 26 26 26 26 26 27 28 28 28 28 28 28 28 28 28 29 29 29 29 30 31 33 34 35 35 36 38 39 39 39 40 40 40 39 38 38 38 39 39 39
41 40 40 42 43 42 41 41 40 38 38 39 37 36 35 34 33 31 29 28 30 31 30 27 25 24 25 25 25 25 24 24 23 23 22 22 22 21 21 22 24 25 25 26 26 26 26 27 27 27 28 28 29 29 28 28 28 28 29 29 29 29 30 30 30 31 33 34 35 36 37 38 39 39 39 39 39 38 37 36 36 36 37 38 38
40 40 41 43 42 40 40 40 40 40 40 39 37 36 36 35 32 29 27 28 28 27 25 24 24 25 25 25 24 23 23 22 22 23 23 22 22 22 23 24 25 26 26 27 27 27 27 27 28 28 29 29 29 29 28 28 29 29 29 30 30 30 30 30 31 31 33 34 35 36 37 38 39 40 40 39 38 37 35 34 34 34 36 37 39
40 41 42 42 41 40 40 40 40 40 38 37 36 35 34 32 28 25 25 25 25 25 24 25 26 26 24 24 23 22 22 22 23 24 23 23 23 24 25 26 26 26 27 27 27 27 28 28 28 29 29 30 29 29 29 29 29 30 31 31 31 31 31 31 32 32 33 34 36 37 38 39 40 40 40 39 38 36 35 34 33 34 35 38 40
41 41 41 41 40 40 40 40 39 37 35 35 34 32 30 27 25 25 25 24 24 24 25 25 25 25 24 23 22 21 22 24 25 25 24 25 25 26 26 26 27 27 27 27 27 27 28 29 29 30 30 30 30 29 29 29 30 31 31 32 32 33 33 33 33 33 34 35 36 37 38 40 40 41 40 38 37 36 35 34 34 35 36 38 40
41 41 41 41 40 40 41 39 36 35 34 33 31 28 26 26 26 26 27 27 25 24 24 23 24 24 24 23 22 22 24 26 27 27 26 26 26 27 27 28 27 27 27 27 27 28 29 30 30 30 30 30 30 30 30 30 31 31 32 32 33 34 34 33 34 34 35 35 37 38 39 40 40 40 40 39 38 37 35 34 34 35 36 37 39
42 41 40 40 40 40 39 35 34 33 32 30 28 27 27 27 27 28 29 30 30 29 27 27 27 27 27 27 27 27 29 29 29 28 27 27 27 28 29 28 27 27 27 27 28 29 30 30 31 31 31 30 30 30 30 30 31 32 32 33 33 34 34 34 35 35 36 36 37 38 39 40 40 40 39 39 38 38 37 35 34 34 35 38 40
42 41 40 39 40 39 36 34 33 32 30 28 27 27 28 28 29 29 29 30 30 30 30 30 30 30 30 30 30 31 30 29 28 27 27 28 28 29 29 28 27 27 27 28 29 29 30 30 31 31 31 31 31 31 31 31 32 32 32 33 33 33 34 35 35 35 36 37 38 39 39 40 40 40 39 39 38 37 37 37 36 36 36 38 40
41 41 40 40 39 37 35 34 33 30 29 28 28 29 28 27 26 26 26 27 28 29 30 30 31 31 32 32 32 31 30 29 28 28 28 28 29 29 29 28 28 28 28 29 29 29 30 30 30 31 31 31 31 31 31 31 32 32 32 32 33 33 34 34 35 35 36 37 38 39 40 40 40 40 39 38 37 37 37 37 37 37 38 38 40
41 41 40 39 37 36 36 35 32 30 29 28 28 28 25 24 23 24 25 26 28 29 29 30 30 31 32 33 32 31 30 29 28 28 28 29 29 29 29 29 29 29 29 29 29 29 29 30 30 31 31 31 31 31 30 31 32 32 32 32 33 33 34 34 34 35 36 37 38 39 40 40 40 40 39 38 37 37 37 38 38 38 38 38 39
40 39 38 37 37 37 36 34 31 30 29 28 29 27 23 22 23 24 26 27 28 29 29 30 30 31 33 34 33 31 30 29 29 29 29 29 29 30 30 30 30 29 29 28 28 29 29 30 30 30 30 30 31 30 30 30 31 31 32 32 32 33 34 34 34 35 36 37 39 39 39 39 40 39 38 38 37 37 37 38 38 39 39 40 40
37 36 36 37 37 37 35 33 31 30 29 29 30 27 23 24 24 24 26 27 28 29 29 30 31 32 34 34 33 31 30 30 30 30 30 30 30 31 31 30 30 30 30 29 29 29 29 30 30 29 30 30 30 30 30 30 30 31 31 32 32 33 34 34 34 35 36 38 38 39 39 39 39 39 38 37 36 36 37 38 39 39 40 41 42
34 34 35 37 37 36 34 32 31 30 28 28 28 26 25 26 26 25 26 27 29 30 30 31 32 32 33 33 33 32 31 31 32 31 31 31 31 31 31 31 32 33 33 33 33 32 32 32 32 31 30 31 30 30 30 29 30 31 31 32 32 33 34 34 34 34 36 38 38 39 39 39 39 38 37 36 36 36 38 38 39 39 40 41 42
33 34 35 36 35 33 31 29 27 27 27 27 27 26 26 27 27 27 27 27 28 29 30 31 31 32 32 33 33 33 32 33 33 32 32 31 32 32 32 33 34 35 37 37 36 35 35 35 35 34 33 33 32 31 30 30 31 31 31 32 33 34 34 34 34 35 36 37 38 38 39 38 38 37 36 35 35 37 38 39 39 40 40 41 42
33 34 34 34 33 31 30 28 27 27 28 28 27 27 28 29 28 27 26 25 25 27 30 32 32 32 32 32 33 33 33 35 35 34 33 33 33 33 33 35 36 37 38 38 36 35 35 36 36 35 34 34 34 33 31 31 31 31 31 32 34 35 35 35 35 36 37 37 37 38 38 38 38 37 36 35 35 36 38 39 40 41 41 41 42
32 32 33 33 32 31 30 29 30 31 31 30 29 29 30 31 29 27 25 23 23 25 28 31 33 34 33 33 34 34 34 36 36 35 35 34 34 34 36 37 38 37 37 37 36 35 35 36 36 35 36 36 35 34 33 32 32 32 32 33 34 35 35 36 36 36 37 37 37 37 38 37 37 37 36 36 35 36 38 39 41 42 42 42 42
31 31 31 31 31 31 32 32 32 33 32 32 31 31 32 31 29 28 27 24 24 26 28 29 31 34 36 36 35 35 35 37 38 37 37 37 37 37 38 38 38 37 37 37 37 36 36 37 37 36 38 38 37 36 35 34 34 33 33 34 35 35 36 37 37 37 37 37 36 37 37 37 37 37 36 36 36 37 39 40 41 42 43 43 43
29 28 27 27 28 28 30 31 31 32 33 33 33 33 33 31 29 29 28 27 28 29 30 30 31 33 36 38 37 36 36 38 40 40 39 40 40 40 39 40 40 39 39 39 39 38 38 38 37 38 39 40 39 40 38 37 35 34 35 36 35 36 37 38 38 37 37 37 36 36 37 36 37 37 36 36 37 37 39 40 41 42 43 44 45
24 24 24 24 25 27 29 30 31 33 34 35 34 34 33 32 31 32 32 31 30 31 32 33 33 34 35 37 39 39 38 40 42 43 42 43 43 42 41 43 43 41 41 41 40 40 41 39 38 39 41 41 41 42 41 40 38 36 36 36 36 36 38 39 39 38 37 37 36 37 37 36 36 36 36 36 37 38 39 41 41 42 43 44 46
23 23 24 25 26 28 30 32 34 35 36 36 36 35 35 35 35 35 34 33 34 35 36 37 36 37 37 38 39 41 41 42 44 45 45 45 45 44 43 44 44 43 43 44 43 43 42 40 39 41 42 42 43 44 44 43 41 38 37 36 36 37 38 39 39 38 37 37 36 36 36 36 36 36 36 36 37 38 40 41 41 42 43 44 45
25 26 26 27 28 30 32 34 35 36 36 36 37 38 37 37 36 36 36 37 38 39 40 39 39 40 40 40 41 42 44 45 46 47 47 46 47 46 44 44 44 45 46 47 46 45 43 41 42 43 43 43 45 45 46 46 43 38 37 36 36 37 39 39 39 38 36 36 36 35 35 36 36 36 36 36 37 39 40 40 41 41 42 44 45
28 29 29 29 30 31 33 35 36 36 37 38 39 39 39 39 40 41 41 42 42 42 43 43 43 44 44 44 44 44 45 47 48 49 49 48 49 48 46 45 46 48 50 49 47 45 44 45 45 44 44 45 46 47 47 48 45 39 36 37 37 38 39 39 39 37 36 35 35 34 34 35 35 35 35 36 37 38 39 39 40 41 42 43 46
31 31 31 31 31 32 33 35 36 37 38 39 40 40 41 42 43 44 44 44 45 45 46 47 47 47 47 47 47 46 47 48 48 49 49 50 51 51 49 48 49 50 51 49 47 46 46 46 45 45 46 47 48 48 49 49 46 40 36 37 38 38 38 40 39 37 35 34 34 33 34 34 34 34 35 36 37 37 38 39 39 39 40 42 45
33 33 33 33 33 33 34 34 35 37 37 38 39 40 40 41 42 42 43 44 45 46 47 47 48 48 48 48 48 48 48 49 49 49 50 51 52 53 53 51 51 50 49 48 48 48 47 46 46 47 49 49 50 50 50 49 47 40 36 38 39 38 38 40 38 37 35 34 33 33 33 33 34 34 34 36 37 37 37 38 38 38 39 41 43
31 31 32 32 32 32 33 34 35 35 36 37 38 38 38 39 40 40 41 42 43 44 45 46 47 47 47 47 47 47 48 49 49 49 50 52 53 54 54 54 51 49 48 49 49 49 49 48 48 49 51 51 52 52 50 49 47 42 38 39 39 38 38 39 38 36 35 34 33 32 32 32 33 33 34 36 36 36 36 36 37 37 38 39 41
28 29 30 30 31 32 33 33 34 35 35 37 37 37 38 39 40 41 42 43 43 44 44 45 46 46 46 46 46 46 47 48 49 49 50 52 54 54 54 54 53 51 50 49 49 50 50 50 49 50 52 53 53 53 51 50 48 45 42 40 38 38 39 39 37 36 35 34 33 32 32 32 32 33 34 35 35 35 35 35 36 36 37 38 39
28 28 29 30 31 32 32 33 34 35 36 37 38 39 40 41 41 42 43 43 44 44 44 45 45 45 45 46 46 47 47 47 47 47 49 51 52 53 54 55 55 54 51 49 48 49 51 51 51 51 53 53 54 54 53 51 49 47 45 41 39 39 39 38 37 36 35 34 32 32 31 32 32 33 34 35 35 35 34 34 35 36 37 37 38
29 29 30 31 31 32 32 33 34 35 36 37 37 38 39 39 40 40 40 41 42 43 43 44 44 44 44 45 46 48 49 48 46 45 45 47 49 51 53 55 55 55 53 50 48 49 50 52 53 54 55 55 55 55 54 52 50 49 47 44 42 41 40 38 37 36 35 33 32 32 31 32 32 33 34 35 36 35 34 34 34 35 36 37 37
29 29 30 31 31 31 31 32 32 33 34 34 35 36 36 37 38 38 38 39 40 41 41 42 42 42 44 44 45 47 48 47 46 46 47 49 50 51 53 55 56 57 57 54 52 51 52 54 56 58 58 57 57 57 55 53 52 51 48 46 44 42 40 38 37 36 35 34 33 32 31 32 32 33 34 35 36 35 34 34 34 35 36 37 37
28 29 29 29 29 29 29 30 31 32 33 33 34 35 36 37 38 38 37 38 39 40 41 41 41 42 43 44 44 45 45 45 46 48 50 51 52 53 54 56 58 60 60 59 57 56 56 58 59 60 60 59 59 58 56 54 54 52 50 47 44 41 39 38 37 36 35 34 33 32 31 32 32 33 34 35 36 35 34 34 35 36 37 37 37
29 28 28 27 27 28 29 30 31 32 33 33 34 36 36 37 37 37 36 37 39 40 40 40 40 42 43 43 43 43 44 45 45 47 48 49 51 52 54 56 59 61 62 62 61 60 60 60 61 62 62 61 61 59 57 56 55 53 50 48 44 41 39 37 36 36 36 34 32 32 31 32 32 33 34 35 35 35 34 34 35 36 36 37 36
31 30 29 29 30 31 32 33 33 34 35 35 36 36 37 37 37 36 36 37 39 39 40 40 41 42 42 42 42 42 43 43 44 44 44 46 48 50 52 55 58 60 61 62 62 62 61 61 61 61 61 61 60 59 58 57 55 53 51 48 44 40 38 37 37 37 36 33 32 32 32 31 32 33 34 34 35 35 34 34 35 36 36 36 35
33 33 33 33 34 35 35 36 36 37 37 38 38 39 39 39 39 38 38 39 41 41 41 40 40 40 41 41 41 41 41 42 42 42 42 43 45 46 48 51 54 56 58 60 61 61 61 60 59 58 58 57 57 57 56 55 54 53 52 48 44 40 38 38 38 37 35 33 33 33 32 31 32 33 33 34 34 34 33 34 35 36 36 36 35
35 35 35 36 37 37 37 38 38 39 39 40 41 41 41 41 40 40 40 41 42 42 41 39 39 39 39 39 38 38 39 41 41 41 42 43 44 44 46 48 51 53 56 59 60 60 59 58 58 57 55 55 54 54 54 53 52 52 51 48 44 41 39 39 38 36 35 34 33 33 32 32 32 32 33 34 34 33 33 34 34 35 36 35 33
36 35 36 36 36 36 37 37 38 38 39 40 40 41 41 41 42 42 43 43 43 43 42 40 39 39 39 39 38 38 39 40 41 42 42 42 42 43 46 49 51 53 55 57 58 57 57 57 57 56 54 53 52 51 51 50 49 49 49 47 45 42 40 39 38 36 35 34 33 33 32 32 32 32 33 34 33 32 32 33 34 35 35 34 33
33 33 33 33 34 34 35 35 36 36 37 38 39 40 41 42 43 43 44 44 44 43 42 41 40 40 40 40 40 40 40 40 41 42 43 42 42 43 46 49 50 51 53 54 55 56 57 57 56 55 52 50 49 48 47 46 47 47 47 46 44 42 40 38 37 36 35 34 33 33 32 32 32 33 33 33 33 32 32 33 34 35 35 34 32
30 30 30 30 31 31 31 32 32 33 34 36 36 37 38 39 40 40 41 41 41 41 41 40 40 41 41 40 39 40 41 41 42 43 44 44 45 47 48 49 50 51 53 54 55 55 56 55 54 52 50 47 45 44 43 43 43 44 44 43 42 40 39 38 37 37 36 34 33 32 32 32 32 33 33 33 32 32 32 33 34 34 34 33 32
27 26 26 27 28 28 28 28 29 30 31 32 33 33 34 35 35 36 36 37 37 38 38 39 39 40 39 38 39 40 42 44 45 46 46 46 48 50 51 51 52 53 53 53 53 52 52 52 51 50 47 44 41 40 39 40 41 41 41 40 39 39 39 38 38 37 36 34 33 33 33 33 32 32 32 32 32 32 32 32 33 34 34 33 32
24 23 24 25 26 26 26 26 27 27 28 28 29 30 30 31 31 32 33 33 34 35 36 37 38 38 38 39 40 42 43 45 47 47 48 49 50 50 50 50 50 50 50 49 49 49 49 49 49 48 46 43 40 38 37 38 38 39 38 38 38 38 38 38 37 37 35 34 33 33 33 33 33 33 32 32 31 31 32 33 33 34 33 33 31
22 22 23 24 24 25 26 27 27 27 27 27 27 28 28 29 29 29 30 31 31 32 33 35 35 36 37 39 41 42 43 45 45 46 47 48 48 47 47 47 46 45 45 45 45 45 45 46 46 46 45 43 41 38 36 36 36 37 36 36 36 37 37 37 37 36 36 34 34 33 33 33 33 33 32 31 31 31 32 33 33 33 33 32 31
23 23 23 24 26 27 29 29 29 28 28 29 29 29 29 28 27 28 29 29 29 30 31 32 33 34 36 39 40 41 42 43 43 44 45 46 46 45 45 43 42 41 41 41 41 41 41 42 43 43 43 42 40 38 36 35 35 36 36 35 34 35 36 36 36 36 35 34 34 33 33 33 33 33 32 31 31 31 32 33 34 33 33 32 30
24 24 25 27 29 31 32 31 31 31 31 30 30 29 28 28 28 29 29 29 29 29 30 31 31 33 35 37 38 39 41 41 41 42 43 43 43 42 41 40 40 39 39 39 38 37 37 38 39 40 40 39 38 37 36 34 34 36 36 35 34 35 35 34 34 35 35 35 34 33 33 33 33 33 32 31 31 32 33 33 33 33 33 31 30
25 26 28 30 32 34 34 33 33 32 32 31 30 30 30 30 31 31 30 30 30 30 30 30 31 33 35 36 37 39 39 39 39 39 40 41 41 41 40 40 39 38 37 37 36 35 35 35 36 36 36 36 36 35 34 33 35 37 38 37 36 36 35 34 34 35 35 35 34 33 33 34 34 32 31 31 31 32 33 33 33 33 32 31 30
27 29 31 33 34 35 35 34 33 32 32 31 31 32 32 32 32 32 31 31 30 30 30 31 32 34 35 36 36 37 37 36 36 37 37 38 38 38 38 37 36 35 36 36 36 35 34 33 33 34 33 33 33 32 32 33 36 38 39 39 40 39 37 35 34 35 35 35 34 34 34 34 33 31 31 31 32 32 33 33 33 33 32 31 30
30 31 33 34 34 35 34 33 33 32 32 32 32 32 32 32 32 31 30 29 29 29 30 31 32 34 34 34 34 34 34 34 34 34 35 35 36 37 37 36 35 34 35 35 36 36 35 34 34 33 33 31 31 31 32 34 37 38 39 40 40 39 37 35 34 34 36 36 36 35 34 33 32 31 32 32 32 32 33 33 33 32 32 31 30
31 32 33 34 34 34 34 33 32 32 32 32 33 33 32 31 29 28 27 28 28 29 30 31 32 33 33 32 32 32 32 32 33 33 34 34 35 36 36 36 36 35 34 34 34 35 34 34 33 33 33 31 31 31 33 36 38 39 39 39 39 38 37 35 35 36 38 38 36 35 33 32 32 32 32 32 32 33 33 33 33 32 31 31 30
32 33 34 35 35 35 34 33 33 33 33 33 32 31 30 28 27 26 27 27 27 28 29 30 31 31 31 31 31 31 31 32 32 33 33 34 34 34 35 35 35 35 35 34 34 33 32 32 32 33 32 32 31 32 34 37 39 39 39 39 39 37 36 36 36 37 38 37 36 34 33 32 32 32 32 32 32 33 33 33 33 32 31 31 31
34 35 36 37 37 35 34 33 33 33 33 32 31 29 28 26 25 25 25 25 26 26 27 28 29 29 29 29 28 28 29 30 30 30 31 32 32 33 33 34 34 34 34 34 33 32 31 31 32 32 32 32 31 32 35 37 39 39 39 39 39 37 35 35 36 37 38 37 36 34 33 33 33 32 32 32 32 33 33 33 32 32 31 31 31
36 37 38 38 37 35 34 34 33 33 32 31 30 28 26 25 24 24 24 24 24 25 26 26 26 25 25 25 25 26 26 27 27 28 29 30 30 31 32 32 32 32 32 32 31 30 30 30 31 31 32 31 31 32 36 38 39 39 39 39 38 36 34 35 37 38 38 37 35 34 33 33 33 32 33 33 33 33 33 33 32 32 32 31 31
36 38 39 38 37 35 34 34 34 32 31 31 29 27 25 24 23 23 23 23 23 23 23 23 22 22 22 22 23 23 24 24 25 25 27 28 29 30 30 31 31 30 30 30 30 30 30 31 31 31 31 31 31 33 36 38 39 39 39 39 38 35 34 35 37 38 38 37 35 34 34 33 33 33 33 33 32 32 33 33 32 32 32 31 32
37 39 39 38 36 36 35 34 33 32 31 30 29 27 25 24 24 23 23 23 22 21 21 21 21 21 21 21 21 22 22 23 23 24 25 26 27 28 28 29 30 30 30 30 30 29 30 31 31 31 31 31 31 33 35 37 38 39 39 39 38 36 35 36 38 39 38 37 35 34 34 34 33 33 33 33 32 33 33 33 33 32 32 32 32
Wind_Direction
223 224 224 225 224 224 225 225 229 234 238 239 240 239 238 239 241 242 242 243 244 247 249 252 251 249 249 253 258 261 262 260 258 256 254 252 252 255 258 260 261 260 260 261 262 263 265 266 268 269 271 271 272 273 274 275 278 279 280 280 281 282 284 286 289 291 293 294 296 297 299 300 301 303 304 304 303 303 303 303 303 303 303 304 306
222 222 221 222 223 224 225 225 228 232 235 237 238 237 237 239 241 242 242 243 244 245 246 248 250 251 254 257 257 256 255 253 251 250 250 251 254 258 259 260 260 260 261 262 263 265 266 268 270 271 272 273 273 274 276 277 279 280 280 280 281 283 285 288 290 292 293 295 297 298 300 302 303 304 304 303 301 300 300 299 300 301 303 305 306
219 220 219 220 221 220 221 222 226 230 233 235 236 236 238 241 244 246 245 243 242 242 245 250 256 257 256 254 251 250 249 248 249 250 252 254 256 257 258 259 260 261 262 264 265 267 268 269 271 272 273 274 275 276 278 280 281 281 281 282 283 285 287 289 291 292 294 296 298 300 302 304 304 304 303 301 299 298 298 298 300 302 304 307 309
215 216 216 217 217 216 218 222 226 229 231 232 234 236 240 243 244 242 240 239 239 244 249 253 255 255 251 248 245 245 247 248 249 251 253 254 254 255 257 259 261 262 264 266 268 269 270 270 272 273 274 276 278 279 281 282 283 283 283 284 285 288 290 291 292 293 295 297 299 302 304 305 304 303 301 300 299 299 299 301 303 306 309 311 313
210 212 213 215 215 215 219 223 226 227 229 232 234 238 241 241 238 235 236 239 240 243 246 248 249 247 243 242 241 245 250 251 251 251 251 252 253 255 258 261 263 265 267 269 270 271 272 272 273 275 276 278 280 281 282 283 284 284 285 286 288 290 291 291 292 294 297 300 302 304 305 305 304 303 302 301 300 300 302 305 308 311 314 314 314
208 210 213 215 215 216 219 223 225 227 230 233 236 238 237 232 231 233 236 240 241 240 241 243 245 242 239 240 243 247 251 252 250 249 248 250 254 257 260 263 265 268 270 272 273 273 273 274 275 276 278 280 281 282 284 285 286 286 287 289 290 290 291 293 295 297 300 303 305 306 306 306 305 304 303 302 301 302 305 308 311 314 315 315 314
207 210 213 215 216 217 220 223 226 227 230 234 236 234 230 229 232 235 237 239 242 242 243 243 242 238 236 238 240 242 243 244 244 245 248 252 256 259 262 265 269 272 274 274 275 275 275 276 276 277 279 280 282 284 286 286 287 287 288 289 290 292 294 295 297 300 303 305 306 307 307 306 305 304 303 302 302 305 307 310 313 316 317 316 315
207 210 212 214 216 219 220 222 225 227 229 233 234 232 231 232 233 233 235 238 241 244 245 244 242 239 237 237 238 239 240 241 243 246 250 254 258 261 265 269 273 275 275 275 276 276 277 277 277 278 280 282 284 285 286 286 286 287 288 290 292 294 295 296 299 302 305 306 307 308 308 306 305 304 302 302 303 306 309 312 315 318 318 318 317
207 209 212 214 218 220 219 220 222 225 227 230 231 230 229 230 230 231 234 237 240 243 246 246 245 243 241 241 241 242 243 244 246 249 253 257 260 264 269 273 275 276 276 276 277 277 277 278 279 281 282 283 284 284 285 285 285 287 289 292 294 295 295 297 300 304 306 307 308 308 307 306 304 303 302 303 305 308 311 314 317 318 318 319 319
207 209 212 214 217 218 218 219 221 224 227 228 228 224 221 224 229 233 236 239 241 242 243 245 246 246 246 245 244 244 245 245 248 251 255 259 263 267 271 274 276 276 276 276 277 278 279 280 281 282 283 283 283 284 284 285 286 289 291 293 294 293 295 298 302 304 306 307 308 307 306 305 304 303 303 305 307 310 313 316 317 318 319 319 319
207 210 212 214 216 216 217 219 221 225 228 227 222 216 217 225 232 233 235 237 240 241 241 242 245 248 249 247 246 246 246 247 251 254 257 261 265 268 272 274 275 276 276 277 278 279 280 280 281 282 283 283 284 284 285 285 288 290 292 293 292 293 295 299 303 305 306 306 306 306 306 305 304 305 305 307 310 312 314 315 317 319 320 320 319
208 209 210 213 215 215 216 218 220 224 230 229 221 216 221 234 240 239 237 237 239 240 240 241 245 249 250 249 249 248 248 251 254 256 259 262 265 269 272 273 274 275 275 275 276 278 279 280 281 283 284 284 285 286 286 288 290 291 291 291 291 292 296 300 303 305 305 305 305 306 306 306 305 305 306 308 311 313 314 316 318 320 321 320 319
208 208 210 213 216 218 219 220 221 225 231 232 228 228 234 242 247 245 239 237 238 239 239 241 245 250 252 252 251 250 250 253 255 257 260 262 265 268 271 272 274 275 276 277 278 280 281 282 282 283 284 285 287 287 288 290 291 291 291 290 291 293 297 301 303 304 303 304 305 306 307 306 305 305 306 309 312 313 314 316 319 320 320 320 320
209 210 212 215 219 221 220 220 224 228 229 229 233 239 243 248 251 247 243 241 241 240 241 243 247 251 253 254 253 251 251 254 256 258 260 262 265 268 270 272 275 277 280 282 284 285 285 285 286 287 287 287 287 288 289 291 291 291 291 291 292 296 300 303 303 303 303 304 306 307 307 306 305 305 308 310 312 313 314 317 318 319 320 320 320
211 212 214 217 221 222 219 219 224 227 226 229 237 241 244 247 248 247 247 249 248 245 244 244 246 249 253 254 254 253 253 255 257 258 260 262 265 267 269 272 275 279 283 286 288 288 288 290 292 293 292 291 290 290 290 291 291 291 292 292 293 297 301 303 302 302 303 305 307 307 307 307 306 307 309 310 312 313 314 317 319 319 320 320 321
215 216 217 219 220 220 219 220 222 224 227 235 242 243 244 246 245 244 247 251 254 254 251 248 248 249 251 253 253 253 254 256 258 259 260 262 263 265 269 273 277 280 283 286 289 290 291 294 295 296 297 297 296 294 292 292 292 292 292 292 293 297 300 300 300 301 303 306 307 308 308 308 307 307 308 309 311 313 315 318 319 318 319 320 322
217 221 223 225 224 222 222 224 227 230 235 240 242 241 244 246 244 243 246 249 254 259 259 258 255 252 251 251 252 253 255 257 258 259 259 260 261 263 268 271 274 276 279 284 287 288 290 292 292 294 298 299 298 296 294 293 292 293 292 291 292 296 297 297 298 300 303 306 307 308 308 307 306 306 307 309 312 315 317 318 318 318 320 320 321
223 227 230 232 231 230 230 232 234 236 239 241 240 239 242 245 245 247 248 248 252 257 260 261 259 256 253 251 251 252 254 255 257 258 258 260 261 262 265 268 270 273 277 280 282 285 287 288 288 292 295 296 295 295 294 292 292 293 291 290 291 293 294 295 298 300 303 306 308 308 308 307 306 306 308 309 312 316 317 317 318 319 320 320 320
226 228 230 231 232 231 232 233 235 236 238 238 237 238 240 243 246 248 248 249 251 254 258 259 259 260 258 254 251 250 252 254 257 258 258 259 261 262 264 267 270 273 276 278 280 283 284 283 286 291 292 290 291 292 292 292 291 291 289 289 290 290 291 294 297 299 302 305 308 309 309 307 306 306 307 310 313 315 316 317 317 319 320 320 319
224 225 227 230 230 230 231 231 233 235 236 235 233 233 237 241 245 247 249 250 251 253 256 257 259 261 261 259 255 252 251 254 256 258 259 260 262 263 264 267 271 274 277 278 278 280 281 282 286 289 288 286 287 288 289 290 290 289 288 288 287 287 290 292 294 297 301 305 307 309 309 307 305 305 307 310 313 315 315 316 317 319 320 319 319
224 225 228 229 229 230 230 230 231 232 232 231 231 234 240 244 247 249 251 252 253 254 256 257 257 258 260 260 259 255 253 253 256 259 261 262 263 264 266 269 273 274 275 275 275 278 282 285 286 284 283 284 286 287 288 288 288 288 288 287 286 287 289 290 292 295 299 302 306 308 308 306 305 305 308 311 313 313 313 315 317 319 319 319 318
227 228 230 232 233 233 231 231 232 231 232 234 236 239 242 244 246 248 249 250 252 253 254 255 255 255 256 257 258 257 256 254 255 258 261 263 265 267 269 270 271 272 272 273 276 280 282 283 282 281 282 284 285 286 287 287 287 288 288 287 286 287 288 288 290 294 297 300 304 306 306 305 304 305 308 309 310 311 312 315 317 318 319 319 318
233 234 235 237 239 238 237 237 237 237 238 240 242 243 244 245 246 247 249 250 251 251 252 253 254 254 255 255 256 257 257 257 257 258 261 264 267 269 270 270 270 271 271 273 276 279 280 281 281 281 282 283 284 285 285 285 286 288 288 286 285 286 287 286 288 292 295 298 302 305 306 305 303 304 306 306 307 309 312 314 316 318 319 319 319
238 239 240 242 243 243 243 244 244 244 246 247 248 249 249 250 252 252 252 253 254 255 255 255 256 256 257 256 256 256 257 258 259 259 260 263 266 268 269 269 269 271 272 274 276 278 279 280 280 280 281 282 282 283 283 284 286 289 288 285 284 285 285 285 287 290 292 296 300 303 305 303 302 302 303 304 306 309 312 314 316 318 319 318 318
238 240 240 242 243 244 245 246 247 248 250 251 252 254 254 256 257 257 259 259 260 261 261 261 261 262 261 261 260 259 258 258 259 260 261 263 265 267 269 270 271 272 273 275 275 276 278 279 279 279 280 281 281 281 282 283 286 287 285 283 283 284 283 283 286 289 290 294 298 301 303 301 300 300 301 303 306 309 311 313 315 317 318 317 318
240 241 242 243 244 244 245 246 247 248 250 251 253 254 255 257 258 259 260 261 262 263 264 264 265 266 267 268 267 264 261 260 259 260 261 263 266 268 270 272 273 272 272 273 274 276 277 277 277 278 279 279 279 280 281 282 283 284 284 283 283 282 281 282 285 286 288 291 296 299 301 299 298 299 300 302 305 308 310 313 315 316 316 317 318
242 243 244 245 245 246 247 248 249 250 251 253 254 255 257 258 259 260 262 264 265 266 267 268 269 270 271 272 271 269 267 265 263 262 262 264 267 269 271 272 273 273 273 273 275 276 276 276 275 275 276 276 277 278 279 280 281 283 283 283 281 279 280 282 283 284 285 289 293 297 299 298 298 298 299 302 305 307 310 312 314 315 315 316 318
243 243 244 245 245 246 248 249 250 251 253 255 256 258 259 261 262 264 265 267 267 268 269 269 270 270 270 269 268 267 267 267 267 267 266 265 266 267 269 270 271 272 272 272 272 272 273 273 273 273 273 274 275 276 277 279 280 281 282 282 280 279 280 281 281 282 284 287 292 296 298 298 298 298 299 302 305 307 310 312 313 314 315 316 317
243 244 245 246 246 248 249 250 252 254 255 256 258 259 261 262 263 264 265 266 267 267 268 268 268 268 268 266 266 265 266 266 265 264 262 261 261 261 263 266 268 269 269 268 268 267 268 269 270 271 272 272 273 275 276 277 277 278 280 280 279 279 279 279 280 280 282 285 290 294 296 297 296 297 299 302 304 306 309 312 313 314 315 315 317
244 244 246 248 249 251 252 253 254 255 256 257 258 259 260 261 261 262 263 265 266 266 267 268 268 268 268 268 268 268 268 267 263 260 259 259 260 261 262 264 265 267 268 269 269 268 268 268 270 271 272 272 273 274 274 275 276 277 278 278 278 277 277 277 278 279 280 283 288 292 295 294 295 296 298 301 303 306 308 311 313 314 314 315 317
244 245 247 249 251 252 253 254 255 255 256 257 258 259 260 261 262 264 265 266 267 268 268 269 268 268 268 269 269 268 268 267 265 263 262 262 262 263 264 265 266 267 269 270 271 270 270 270 271 272 272 272 273 273 273 274 275 275 276 276 275 275 275 275 276 277 278 282 286 290 292 292 293 295 297 299 302 305 308 311 312 313 314 315 316
246 247 249 250 251 251 252 253 254 255 256 257 258 259 261 262 263 264 265 266 266 266 266 266 266 267 268 268 268 268 268 268 267 266 265 264 264 264 264 265 266 267 269 270 270 270 270 270 270 271 272 273 274 273 273 274 275 274 274 274 273 273 274 273 273 274 277 281 284 286 289 291 292 293 295 298 301 304 307 311 312 312 313 314 316
246 247 248 249 250 251 252 254 255 256 257 258 258 259 260 261 262 262 262 263 263 264 265 266 267 268 269 268 269 269 268 268 268 267 267 265 265 264 264 264 264 265 267 268 269 269 270 270 270 271 273 274 274 274 275 275 274 273 273 272 271 272 271 270 270 273 276 278 280 284 287 289 290 292 294 297 300 303 307 309 311 312 313 313 316
248 249 250 251 252 253 255 256 257 258 258 259 260 261 261 261 262 262 262 263 264 266 267 268 269 269 269 269 269 269 269 270 270 269 268 266 265 264 263 263 263 264 265 267 269 271 272 274 275 276 276 276 276 277 277 277 274 273 273 271 270 270 268 267 268 271 274 275 278 282 285 287 288 290 293 296 299 303 306 308 310 311 311 312 315
251 252 253 254 256 257 258 259 260 261 262 262 263 264 264 264 264 265 266 266 267 268 270 270 270 269 269 269 269 269 269 270 270 270 269 268 266 264 263 263 264 265 266 269 272 275 277 279 280 280 279 278 278 278 279 278 275 274 272 271 269 268 267 266 267 268 270 272 275 280 283 286 287 289 291 295 298 302 305 307 308 309 309 311 314
253 254 255 256 258 259 260 262 263 264 265 266 266 267 267 268 269 270 270 271 273 274 274 272 271 269 269 270 271 270 270 269 269 269 269 267 265 263 263 265 267 269 271 274 277 279 280 281 281 281 280 279 279 279 279 278 277 275 273 271 269 267 266 265 264 265 267 270 273 278 282 284 285 287 290 294 297 301 304 306 307 307 307 309 313
252 254 255 257 259 261 261 263 265 266 267 268 269 270 272 273 274 275 276 276 277 277 275 274 272 271 272 272 272 271 270 268 267 266 266 266 266 267 269 272 274 275 277 278 279 280 280 281 281 281 280 279 278 278 278 278 277 275 273 271 268 265 264 262 261 262 264 268 272 276 280 282 284 286 289 293 296 300 302 304 305 305 306 308 312
254 256 258 260 262 263 264 265 266 267 269 270 272 273 274 275 276 277 277 277 277 276 275 274 273 272 272 272 270 269 269 268 267 267 267 269 270 272 274 276 277 277 277 278 278 278 279 279 279 279 278 277 276 275 276 278 278 276 274 271 266 261 260 259 259 260 262 266 270 273 277 280 282 284 287 291 295 298 301 303 304 304 305 308 310
255 257 259 260 263 266 268 269 270 271 273 275 276 276 276 276 277 277 276 275 275 274 273 272 271 270 270 270 269 268 268 269 270 271 273 273 274 275 276 276 277 277 277 277 277 277 278 278 278 278 277 276 274 272 272 274 275 275 273 269 263 258 257 258 258 258 260 263 267 270 275 279 281 283 286 290 293 297 300 302 302 303 304 307 310
259 261 263 267 272 275 278 280 282 284 285 284 282 282 282 282 280 278 276 275 274 273 272 271 270 270 269 268 267 268 269 270 272 274 275 276 277 277 278 278 279 279 279 278 278 278 278 277 277 277 277 276 274 271 269 269 270 270 268 266 262 258 257 257 257 256 257 260 264 268 273 277 280 282 285 289 293 297 300 300 301 302 303 305 308
268 272 276 280 284 286 288 290 292 292 290 288 288 289 289 287 284 281 280 279 277 275 274 273 272 270 269 268 269 270 270 271 273 274 276 277 279 280 281 281 282 283 283 282 281 279 278 277 276 276 276 275 273 271 268 266 265 265 263 262 260 256 255 255 254 253 254 258 262 266 271 275 278 280 283 287 292 296 298 299 300 301 302 304 307
276 281 285 287 289 290 292 293 293 292 292 292 293 293 292 290 288 286 285 284 282 281 280 279 276 273 271 270 271 271 271 272 274 276 278 280 281 282 284 285 286 287 286 284 281 279 278 277 276 275 275 274 272 270 266 264 262 261 260 258 256 254 253 253 252 250 252 255 259 264 269 273 276 278 281 286 291 295 296 297 298 299 300 302 305
282 285 286 287 288 289 291 292 293 293 293 294 293 292 290 290 289 289 288 287 286 284 283 280 277 274 272 272 273 273 274 276 277 278 279 280 281 283 285 287 287 287 285 283 282 280 278 277 276 275 274 273 270 267 263 260 258 257 256 254 252 251 251 250 247 246 248 252 257 262 267 270 274 277 280 285 289 292 295 296 297 297 299 301 303
283 285 285 286 287 288 289 291 292 292 292 290 289 288 288 288 288 287 286 285 283 281 279 277 275 274 275 275 276 277 279 279 279 279 279 280 281 283 285 286 286 286 284 284 283 281 280 279 278 276 274 271 266 262 258 255 255 256 257 255 253 252 252 249 245 243 246 251 255 259 263 268 273 276 279 283 287 291 293 294 295 296 297 299 302
285 285 285 285 285 286 287 287 287 287 286 286 285 285 285 285 285 284 283 280 278 276 275 275 275 277 278 280 280 281 282 283 283 283 282 282 282 283 284 285 285 284 284 283 283 281 281 280 279 279 277 271 263 256 252 251 252 254 256 257 257 258 256 251 244 242 244 248 252 256 261 267 272 274 277 281 286 289 291 293 294 294 296 299 301
284 284 282 282 282 282 283 283 283 283 283 283 283 283 283 283 282 281 278 275 274 274 274 276 278 280 282 283 283 284 285 285 285 285 285 285 285 285 284 283 282 282 282 282 281 281 281 280 279 279 277 271 261 252 249 249 251 253 255 257 259 259 256 250 244 241 243 247 250 255 261 266 269 272 275 280 284 287 290 291 292 293 295 298 299
282 280 278 278 278 279 279 280 280 281 281 281 281 281 281 280 278 277 275 274 274 275 276 278 279 280 281 282 282 283 283 284 284 285 286 287 287 287 285 284 282 281 281 280 280 281 281 280 279 278 276 271 262 254 251 252 253 254 255 257 258 258 256 252 247 243 244 246 250 254 259 263 267 270 274 278 282 285 288 290 291 293 295 296 297
279 277 275 276 276 276 277 278 278 278 279 279 279 279 278 278 277 276 276 275 275 275 276 277 278 278 279 279 280 282 282 283 284 286 286 287 287 286 285 285 283 282 280 280 280 281 281 279 277 276 274 271 265 258 255 255 255 256 256 257 258 258 257 253 248 244 244 246 249 252 256 261 265 269 272 276 279 283 286 289 290 292 293 294 295
275 274 274 274 274 275 275 276 276 277 277 277 277 278 278 278 277 276 275 274 274 274 275 276 277 277 278 279 281 283 284 285 286 286 286 286 286 286 285 284 283 282 280 280 280 279 278 277 276 275 274 271 266 260 257 256 256 257 257 257 258 258 256 252 248 245 246 247 249 251 255 259 263 267 270 274 278 282 285 288 289 290 291 292 293
273 273 273 273 273 274 274 275 275 276 276 276 277 278 278 277 276 274 273 273 273 274 275 276 276 276 278 282 285 287 288 288 287 287 287 288 287 286 284 283 283 282 281 280 280 280 278 277 276 275 274 272 268 262 259 258 259 259 259 258 257 256 254 251 248 247 248 249 249 250 253 258 262 265 269 273 277 281 284 286 288 289 290 291 292
272 271 271 271 272 273 273 273 274 274 275 275 277 277 277 276 275 273 272 273 274 273 273 274 274 277 281 286 289 291 292 292 291 290 290 290 290 289 287 286 285 284 283 283 283 282 281 279 278 277 276 275 272 267 264 263 263 262 260 259 258 256 253 250 248 248 249 250 250 250 252 256 260 264 268 272 276 280 282 284 286 288 288 289 290
Height
3030 3035 3038 3042 3045 3048 3052 3055 3057 3060 3062 3064 3065 3067 3069 3071 3073 3075 3077 3079 3081 3082 3083 3084 3084 3085 3087 3088 3089 3090 3091 3091 3092 3093 3093 3094 3094 3095 3095 3096 3096 3097 3097 3097 3097 3097 3098 3098 3098 3098 3098 3098 3097 3097 3096 3096 3095 3094 3093 3092 3091 3090 3090 3089 3087 3085 3084 3082 3080 3079 3077 3075 3072 3071 3069 3066 3064 3062 3060 3058 3056 3052 3049 3046 3043
3026 3031 3034 3037 3041 3044 3047 3050 3053 3055 3058 3060 3062 3064 3066 3067 3069 3071 3074 3076 3077 3078 3079 3080 3081 3082 3083 3084 3085 3086 3087 3088 3088 3089 3090 3090 3091 3091 3092 3093 3093 3093 3094 3094 3094 3094 3095 3095 3095 3095 3095 3094 3094 3093 3093 3092 3091 3090 3089 3088 3087 3087 3086 3085 3084 3082 3080 3078 3077 3075 3073 3071 3069 3067 3065 3063 3062 3060 3058 3056 3052 3049 3045 3041 3039
3022 3026 3030 3033 3037 3040 3043 3046 3049 3052 3054 3056 3058 3060 3062 3064 3066 3069 3071 3072 3073 3075 3076 3077 3078 3079 3080 3081 3082 3083 3084 3085 3085 3086 3087 3087 3087 3088 3089 3089 3090 3090 3091 3091 3091 3091 3091 3091 3091 3091 3091 3090 3090 3089 3089 3088 3087 3086 3085 3084 3083 3083 3082 3081 3080 3078 3076 3074 3072 3070 3068 3067 3065 3063 3061 3060 3058 3056 3055 3052 3049 3045 3041 3037 3034
3018 3022 3026 3029 3033 3036 3039 3043 3046 3048 3051 3053 3055 3057 3059 3061 3064 3066 3067 3069 3070 3072 3073 3074 3076 3076 3077 3078 3079 3080 3080 3081 3082 3083 3083 3084 3084 3085 3086 3086 3087 3087 3087 3088 3088 3088 3088 3088 3088 3088 3087 3086 3086 3085 3084 3084 3083 3082 3081 3080 3079 3078 3077 3076 3075 3074 3072 3070 3068 3066 3064 3062 3061 3059 3057 3055 3053 3051 3049 3047 3044 3040 3036 3032 3027
3014 3018 3022 3026 3029 3033 3036 3039 3043 3045 3048 3049 3052 3054 3056 3059 3061 3063 3064 3066 3067 3069 3070 3072 3073 3073 3074 3075 3076 3076 3077 3078 3079 3079 3080 3081 3081 3082 3083 3083 3084 3084 3084 3084 3084 3084 3084 3084 3084 3084 3083 3082 3082 3081 3080 3079 3078 3077 3076 3075 3075 3073 3072 3071 3070 3069 3067 3065 3063 3062 3060 3058 3055 3053 3051 3049 3047 3046 3044 3041 3038 3035 3030 3026 3022
3011 3015 3019 3023 3026 3030 3033 3037 3040 3042 3044 3046 3049 3051 3053 3056 3058 3059 3061 3063 3064 3066 3067 3068 3069 3070 3071 3072 3072 3073 3074 3075 3075 3076 3077 3077 3078 3079 3080 3080 3080 3080 3081 3081 3081 3081 3080 3080 3080 3080 3079 3078 3077 3077 3076 3075 3074 3073 3072 3071 3070 3068 3067 3066 3065 3064 3062 3060 3059 3057 3055 3052 3050 3047 3046 3044 3042 3041 3039 3036 3033 3029 3025 3021 3017
3008 3012 3016 3020 3024 3027 3031 3034 3037 3039 3041 3043 3046 3048 3050 3052 3054 3056 3058 3059 3061 3062 3063 3064 3065 3066 3067 3067 3068 3069 3070 3071 3071 3072 3074 3075 3075 3076 3076 3077 3077 3077 3077 3077 3077 3077 3077 3077 3076 3075 3075 3074 3073 3073 3072 3071 3070 3068 3067 3066 3064 3063 3062 3061 3060 3058 3057 3055 3054 3052 3050 3047 3045 3043 3041 3039 3037 3035 3033 3030 3028 3025 3021 3016 3012
3005 3009 3013 3017 3021 3024 3028 3031 3033 3035 3038 3041 3043 3045 3047 3049 3051 3052 3054 3056 3057 3059 3060 3061 3061 3062 3063 3063 3064 3065 3066 3067 3068 3070 3071 3072 3072 3073 3073 3073 3073 3073 3073 3074 3074 3073 3073 3073 3072 3071 3071 3070 3069 3069 3068 3067 3065 3064 3063 3061 3060 3059 3058 3056 3055 3054 3052 3051 3049 3047 3045 3042 3040 3039 3037 3035 3033 3030 3027 3024 3021 3019 3016 3012 3008
3002 3006 3010 3014 3018 3022 3025 3028 3030 3032 3035 3038 3040 3041 3043 3046 3047 3049 3051 3052 3054 3055 3056 3057 3058 3059 3060 3060 3061 3062 3064 3065 3066 3067 3067 3068 3069 3069 3069 3070 3070 3070 3070 3070 3070 3070 3069 3069 3068 3067 3067 3066 3065 3065 3064 3063 3061 3059 3058 3057 3056 3055 3053 3052 3051 3050 3048 3046 3044 3042 3040 3038 3036 3034 3032 3030 3028 3025 3021 3018 3016 3013 3011 3008 3004
2999 3003 3007 3012 3015 3018 3022 3024 3027 3029 3032 3035 3036 3038 3041 3043 3044 3046 3048 3049 3050 3051 3052 3053 3054 3056 3057 3058 3059 3060 3061 3062 3063 3064 3064 3065 3065 3065 3066 3066 3066 3066 3066 3066 3066 3066 3065 3065 3064 3063 3063 3062 3061 3060 3060 3058 3057 3055 3054 3053 3052 3050 3049 3049 3048 3046 3044 3041 3039 3038 3036 3034 3032 3030 3028 3025 3022 3019 3016 3013 3011 3009 3006 3004 3001
2996 3001 3005 3009 3012 3015 3019 3022 3024 3027 3030 3032 3033 3036 3038 3040 3041 3043 3044 3045 3046 3047 3049 3050 3051 3053 3053 3054 3056 3057 3058 3059 3059 3060 3061 3061 3062 3062 3062 3063 3063 3063 3062 3062 3062 3062 3061 3061 3060 3059 3059 3058 3057 3056 3055 3054 3053 3051 3050 3049 3048 3046 3045 3044 3043 3041 3039 3037 3035 3034 3032 3030 3027 3025 3023 3020 3017 3014 3011 3008 3006 3004 3001 2999 2996
2994 2999 3003 3006 3009 3012 3016 3019 3022 3025 3027 3029 3031 3033 3035 3036 3038 3039 3040 3042 3043 3044 3045 3047 3048 3049 3050 3051 3052 3054 3055 3055 3056 3057 3057 3058 3058 3059 3059 3059 3059 3058 3058 3058 3058 3057 3057 3056 3056 3055 3054 3053 3052 3051 3051 3050 3048 3047 3046 3045 3044 3043 3041 3040 3039 3037 3035 3033 3031 3030 3028 3025 3022 3020 3018 3015 3012 3009 3006 3004 3002 2999 2997 2994 2991
2992 2996 3000 3003 3006 3010 3013 3016 3019 3022 3025 3026 3028 3030 3031 3033 3034 3035 3037 3038 3039 3040 3042 3043 3044 3045 3046 3048 3049 3050 3051 3052 3052 3053 3054 3054 3054 3054 3055 3054 3054 3054 3054 3054 3054 3054 3053 3052 3052 3051 3050 3049 3048 3047 3046 3045 3044 3043 3042 3040 3039 3038 3037 3036 3034 3033 3031 3029 3027 3025 3023 3020 3017 3015 3013 3010 3008 3005 3002 3000 2998 2995 2993 2990 2987
2990 2994 2997 3001 3004 3007 3010 3013 3017 3019 3021 3023 3024 3026 3028 3029 3030 3031 3032 3033 3034 3036 3038 3039 3041 3042 3043 3044 3045 3046 3047 3048 3048 3049 3050 3050 3050 3050 3050 3050 3050 3050 3050 3050 3050 3050 3049 3048 3047 3047 3046 3044 3043 3042 3042 3041 3040 3039 3038 3036 3034 3033 3031 3030 3029 3028 3027 3025 3023 3020 3018 3015 3012 3010 3008 3006 3003 3001 2998 2996 2994 2992 2989 2987 2984
2988 2991 2995 2998 3001 3004 3007 3011 3014 3016 3017 3019 3021 3022 3024 3025 3026 3027 3028 3029 3031 3033 3034 3035 3036 3038 3039 3040 3041 3042 3043 3043 3044 3045 3046 3046 3046 3046 3046 3046 3047 3047 3047 3046 3046 3045 3045 3044 3043 3043 3042 3040 3039 3038 3037 3036 3035 3035 3033 3031 3029 3027 3026 3025 3024 3023 3022 3020 3018 3015 3012 3010 3007 3005 3003 3001 3000 2997 2995 2992 2990 2987 2985 2983 2980
2986 2989 2992 2996 2999 3002 3005 3008 3010 3012 3013 3015 3017 3018 3020 3021 3023 3024 3025 3026 3027 3029 3030 3031 3032 3034 3035 3036 3037 3038 3039 3039 3039 3040 3041 3041 3041 3042 3042 3042 3043 3043 3042 3042 3042 3041 3041 3040 3039 3038 3037 3036 3035 3034 3033 3032 3031 3031 3029 3026 3024 3022 3021 3020 3019 3018 3017 3015 3012 3010 3007 3005 3002 3000 2998 2997 2996 2994 2991 2988 2985 2982 2980 2978 2975
2984 2987 2991 2994 2997 2999 3002 3004 3006 3008 3009 3011 3012 3015 3016 3018 3020 3020 3021 3023 3024 3025 3026 3027 3028 3029 3030 3031 3032 3034 3035 3035 3034 3035 3036 3036 3036 3038 3038 3038 3038 3038 3038 3037 3038 3037 3036 3036 3035 3034 3033 3032 3030 3028 3028 3027 3027 3027 3024 3021 3019 3018 3016 3015 3014 3014 3012 3010 3008 3005 3003 3001 2998 2996 2994 2992 2991 2989 2986 2984 2981 2978 2975 2972 2970
2984 2986 2989 2991 2993 2995 2997 2999 3001 3003 3005 3007 3009 3012 3013 3015 3016 3016 3017 3019 3020 3021 3022 3023 3024 3024 3025 3026 3028 3029 3030 3029 3029 3029 3031 3031 3031 3033 3034 3033 3033 3033 3033 3033 3033 3033 3032 3031 3030 3029 3029 3027 3025 3024 3023 3023 3023 3022 3020 3017 3015 3014 3012 3010 3009 3009 3007 3005 3003 3001 2999 2996 2994 2992 2990 2988 2986 2984 2982 2980 2977 2974 2971 2968 2965
2982 2984 2986 2987 2989 2991 2993 2995 2998 3000 3002 3004 3007 3009 3010 3011 3011 3012 3012 3014 3016 3017 3017 3018 3019 3020 3021 3022 3023 3024 3025 3024 3023 3024 3025 3025 3026 3028 3029 3028 3027 3028 3028 3028 3028 3028 3027 3026 3026 3025 3024 3022 3020 3019 3018 3017 3018 3017 3015 3012 3011 3009 3007 3005 3005 3004 3002 3000 2998 2996 2994 2992 2989 2987 2985 2983 2982 2980 2978 2976 2973 2970 2967 2963 2960
2979 2980 2982 2984 2986 2988 2990 2992 2995 2997 2999 3001 3003 3004 3005 3005 3005 3006 3008 3010 3011 3012 3012 3013 3015 3015 3016 3017 3018 3019 3020 3019 3019 3018 3019 3020 3020 3022 3024 3023 3023 3023 3023 3023 3022 3022 3021 3021 3021 3020 3018 3017 3015 3014 3012 3012 3012 3012 3010 3008 3006 3005 3003 3001 3000 2999 2998 2995 2993 2991 2989 2987 2985 2983 2981 2979 2978 2976 2974 2972 2969 2966 2963 2960 2956
2975 2977 2979 2981 2983 2985 2987 2989 2991 2993 2995 2996 2998 2999 2999 3000 3001 3003 3004 3005 3006 3007 3008 3009 3010 3010 3011 3012 3013 3013 3014 3014 3014 3013 3014 3015 3015 3016 3018 3019 3018 3018 3017 3016 3016 3016 3016 3016 3015 3014 3012 3011 3009 3008 3007 3005 3006 3007 3006 3003 3001 3000 2998 2997 2995 2995 2993 2991 2989 2987 2985 2983 2981 2979 2977 2976 2974 2973 2971 2968 2965 2962 2959 2956 2952
2972 2974 2976 2978 2980 2981 2983 2985 2986 2988 2990 2991 2992 2994 2995 2996 2998 2999 3000 3000 3001 3002 3002 3003 3004 3005 3006 3007 3007 3008 3008 3009 3009 3009 3009 3009 3009 3009 3012 3014 3013 3011 3010 3009 3010 3011 3011 3010 3009 3007 3005 3005 3004 3002 3001 2999 2999 3001 3001 2998 2996 2996 2994 2992 2990 2990 2989 2986 2984 2983 2981 2979 2977 2975 2974 2972 2971 2970 2967 2964 2962 2959 2956 2952 2948
2969 2971 2973 2974 2976 2978 2979 2981 2982 2984 2985 2986 2988 2989 2990 2991 2992 2993 2994 2994 2995 2996 2996 2997 2998 2999 3000 3001 3002 3003 3003 3003 3004 3004 3004 3003 3003 3003 3005 3007 3007 3005 3004 3004 3004 3005 3005 3004 3003 3001 2999 2998 2997 2996 2994 2993 2993 2996 2996 2993 2991 2991 2990 2987 2985 2985 2984 2982 2980 2979 2977 2975 2974 2972 2970 2969 2968 2966 2964 2961 2959 2956 2953 2949 2944
2966 2968 2969 2971 2973 2974 2975 2977 2978 2979 2981 2982 2983 2984 2985 2986 2986 2987 2988 2988 2989 2989 2990 2991 2991 2992 2994 2995 2996 2998 2998 2998 2999 3000 2999 2997 2996 2996 2997 2999 3000 2999 2999 2999 2998 2998 2998 2998 2997 2995 2993 2992 2990 2989 2988 2986 2987 2990 2990 2987 2986 2987 2985 2982 2981 2980 2979 2978 2976 2974 2973 2972 2970 2968 2967 2965 2964 2962 2960 2957 2955 2953 2950 2946 2942
2962 2964 2965 2967 2969 2970 2971 2973 2974 2975 2977 2977 2978 2980 2981 2981 2982 2982 2983 2983 2984 2984 2985 2985 2985 2986 2988 2989 2990 2991 2992 2993 2993 2994 2994 2992 2990 2990 2990 2991 2993 2994 2994 2993 2992 2992 2991 2991 2990 2988 2986 2985 2983 2982 2982 2981 2981 2983 2983 2981 2981 2982 2980 2977 2976 2976 2974 2973 2971 2970 2969 2967 2966 2964 2963 2961 2960 2959 2957 2954 2952 2949 2947 2944 2939
2958 2960 2961 2963 2965 2966 2967 2969 2970 2972 2973 2973 2974 2976 2976 2976 2977 2978 2978 2978 2978 2979 2980 2980 2980 2981 2982 2983 2984 2985 2986 2986 2987 2989 2989 2987 2985 2984 2984 2984 2985 2987 2987 2987 2987 2985 2984 2984 2983 2982 2980 2978 2977 2976 2976 2975 2975 2976 2976 2976 2977 2976 2974 2973 2972 2971 2970 2968 2967 2966 2964 2963 2962 2960 2959 2957 2956 2955 2953 2950 2948 2946 2944 2941 2936
2954 2956 2957 2959 2960 2961 2963 2965 2966 2967 2968 2969 2969 2970 2971 2971 2972 2972 2973 2973 2974 2974 2975 2975 2976 2976 2977 2978 2979 2979 2979 2980 2981 2982 2983 2982 2981 2980 2978 2977 2976 2977 2979 2982 2982 2980 2977 2976 2976 2974 2972 2971 2970 2969 2969 2969 2969 2969 2970 2970 2971 2970 2969 2968 2968 2966 2965 2964 2963 2961 2960 2959 2957 2956 2954 2953 2952 2950 2949 2946 2944 2942 2940 2937 2934
2950 2952 2953 2954 2955 2957 2958 2960 2961 2962 2963 2964 2965 2965 2966 2967 2967 2968 2969 2969 2969 2970 2970 2970 2971 2972 2972 2972 2972 2972 2972 2973 2975 2977 2977 2977 2976 2974 2971 2969 2968 2968 2970 2974 2975 2974 2970 2968 2967 2966 2965 2964 2963 2962 2963 2963 2963 2963 2963 2964 2964 2964 2964 2963 2963 2961 2960 2959 2958 2957 2955 2954 2952 2951 2950 2948 2947 2946 2944 2942 2940 2939 2936 2933 2930
2946 2947 2948 2949 2951 2953 2954 2955 2956 2957 2958 2959 2960 2960 2961 2961 2962 2963 2964 2964 2964 2964 2964 2964 2965 2965 2965 2965 2965 2965 2965 2967 2970 2971 2970 2969 2968 2967 2965 2963 2961 2960 2960 2963 2966 2966 2963 2960 2958 2957 2957 2957 2956 2956 2956 2957 2956 2957 2957 2957 2957 2958 2958 2958 2957 2956 2955 2954 2953 2952 2951 2949 2948 2947 2945 2944 2942 2941 2939 2938 2936 2934 2932 2929 2926
2941 2942 2944 2945 2947 2949 2950 2951 2951 2952 2953 2954 2954 2955 2955 2955 2956 2957 2958 2958 2958 2958 2958 2958 2959 2959 2958 2958 2959 2959 2959 2960 2962 2962 2961 2961 2961 2961 2960 2958 2955 2952 2951 2953 2956 2956 2955 2954 2951 2950 2950 2950 2949 2949 2950 2950 2950 2951 2951 2951 2951 2952 2952 2952 2952 2951 2950 2949 2949 2948 2946 2945 2943 2942 2941 2939 2937 2936 2934 2933 2931 2929 2927 2925 2922
2937 2938 2940 2941 2943 2944 2944 2945 2946 2946 2947 2947 2948 2948 2949 2949 2950 2951 2953 2953 2952 2952 2952 2953 2953 2952 2951 2952 2953 2953 2953 2953 2953 2954 2954 2955 2955 2955 2954 2952 2949 2946 2945 2945 2946 2946 2947 2946 2945 2944 2943 2942 2942 2943 2943 2943 2944 2944 2945 2945 2945 2946 2946 2947 2947 2945 2945 2945 2944 2943 2942 2940 2939 2938 2936 2935 2933 2931 2929 2928 2927 2925 2923 2920 2917
2932 2934 2936 2937 2937 2938 2938 2939 2939 2940 2941 2941 2942 2942 2943 2943 2944 2946 2947 2946 2945 2945 2945 2945 2946 2945 2946 2946 2946 2947 2947 2946 2946 2946 2948 2948 2948 2948 2948 2946 2943 2940 2938 2937 2936 2936 2937 2938 2937 2937 2936 2936 2936 2937 2937 2937 2937 2938 2938 2938 2939 2940 2941 2941 2941 2940 2940 2940 2939 2938 2937 2936 2934 2933 2932 2930 2929 2927 2925 2923 2922 2920 2918 2916 2913
2928 2929 2930 2931 2931 2932 2933 2933 2934 2935 2935 2936 2936 2937 2937 2938 2939 2940 2940 2938 2938 2938 2938 2939 2940 2940 2940 2940 2940 2940 2940 2940 2939 2940 2941 2941 2941 2941 2940 2938 2935 2933 2931 2928 2927 2927 2928 2928 2929 2929 2930 2930 2931 2931 2931 2931 2931 2931 2931 2932 2933 2935 2935 2935 2935 2935 2935 2935 2934 2933 2932 2931 2930 2929 2927 2926 2924 2922 2920 2919 2918 2916 2914 2912 2909
2923 2924 2925 2925 2926 2927 2927 2928 2929 2929 2930 2930 2931 2931 2932 2932 2933 2933 2933 2932 2932 2932 2933 2934 2935 2934 2934 2934 2935 2935 2934 2933 2933 2934 2934 2934 2933 2933 2932 2929 2928 2926 2923 2920 2919 2920 2921 2921 2922 2923 2924 2925 2924 2924 2924 2924 2924 2924 2924 2926 2927 2928 2929 2929 2929 2930 2930 2929 2929 2928 2927 2926 2925 2924 2923 2922 2920 2918 2916 2915 2913 2912 2910 2908 2905
2918 2919 2919 2920 2921 2921 2922 2923 2923 2924 2925 2925 2925 2926 2926 2927 2927 2927 2927 2927 2927 2927 2928 2929 2930 2929 2928 2928 2929 2929 2928 2927 2927 2927 2927 2927 2927 2926 2923 2921 2919 2918 2916 2915 2915 2915 2916 2915 2916 2916 2917 2918 2918 2917 2918 2918 2917 2917 2918 2919 2920 2922 2922 2923 2923 2924 2924 2924 2924 2923 2922 2922 2921 2920 2918 2917 2916 2914 2912 2911 2909 2908 2906 2904 2902
2912 2914 2914 2915 2915 2916 2917 2918 2918 2919 2919 2920 2920 2920 2920 2921 2921 2921 2921 2921 2921 2922 2923 2924 2924 2923 2922 2922 2923 2923 2922 2922 2921 2920 2919 2919 2919 2918 2915 2914 2913 2913 2912 2911 2911 2910 2910 2909 2908 2909 2910 2911 2911 2911 2911 2911 2911 2911 2912 2913 2914 2915 2916 2917 2917 2918 2918 2918 2918 2918 2917 2917 2916 2915 2914 2913 2911 2909 2908 2906 2905 2904 2902 2900 2898
2908 2909 2909 2910 2910 2911 2912 2913 2913 2914 2914 2914 2914 2915 2915 2915 2915 2915 2916 2916 2916 2917 2917 2917 2917 2917 2917 2917 2918 2916 2915 2915 2914 2913 2912 2912 2911 2910 2909 2909 2909 2908 2907 2906 2905 2904 2903 2902 2901 2901 2902 2903 2904 2904 2905 2905 2905 2905 2905 2906 2908 2909 2909 2910 2911 2912 2912 2913 2913 2913 2912 2912 2911 2910 2909 2908 2906 2905 2903 2902 2901 2900 2898 2896 2894
2903 2904 2905 2905 2905 2905 2906 2907 2908 2908 2908 2908 2909 2909 2909 2909 2910 2910 2910 2910 2910 2910 2911 2911 2911 2911 2912 2912 2912 2910 2908 2907 2906 2906 2907 2906 2905 2904 2904 2903 2902 2901 2900 2899 2898 2896 2895 2895 2894 2894 2895 2896 2897 2898 2898 2898 2899 2899 2899 2900 2901 2902 2903 2904 2905 2906 2907 2907 2908 2907 2907 2906 2906 2905 2904 2903 2902 2900 2899 2898 2897 2896 2894 2892 2890
2899 2900 2900 2900 2900 2900 2901 2902 2902 2903 2903 2903 2903 2903 2903 2904 2904 2904 2904 2904 2904 2904 2904 2904 2904 2905 2906 2906 2905 2903 2902 2900 2899 2900 2900 2899 2899 2898 2897 2896 2894 2893 2892 2891 2890 2890 2889 2888 2887 2887 2887 2888 2890 2891 2892 2892 2892 2892 2893 2894 2894 2895 2896 2897 2899 2900 2901 2902 2902 2902 2902 2901 2901 2900 2900 2899 2897 2895 2894 2893 2892 2891 2889 2888 2886
2894 2894 2895 2894 2894 2895 2895 2895 2896 2897 2897 2897 2897 2897 2898 2898 2898 2898 2898 2897 2898 2898 2898 2898 2898 2900 2900 2899 2897 2897 2896 2895 2894 2894 2893 2891 2891 2891 2890 2889 2888 2887 2886 2885 2884 2884 2883 2882 2881 2880 2880 2881 2883 2884 2885 2886 2886 2886 2886 2887 2887 2888 2890 2891 2893 2894 2895 2896 2896 2896 2896 2896 2896 2895 2895 2894 2892 2891 2890 2889 2888 2887 2885 2883 2882
2888 2888 2889 2889 2889 2889 2889 2890 2891 2891 2891 2891 2891 2892 2892 2892 2892 2892 2892 2892 2892 2892 2892 2892 2893 2894 2893 2892 2892 2891 2890 2889 2889 2888 2886 2885 2885 2884 2884 2883 2882 2881 2880 2879 2879 2878 2877 2876 2875 2874 2874 2875 2876 2877 2878 2880 2880 2879 2880 2881 2881 2882 2883 2885 2886 2888 2889 2890 2891 2891 2891 2891 2891 2890 2890 2888 2887 2886 2885 2884 2883 2882 2881 2879 2878
2883 2883 2883 2883 2883 2883 2884 2885 2885 2885 2885 2886 2886 2886 2886 2886 2886 2886 2886 2886 2887 2887 2887 2887 2887 2887 2886 2886 2886 2885 2883 2883 2883 2882 2882 2881 2880 2879 2878 2877 2876 2875 2874 2873 2872 2872 2871 2870 2869 2868 2868 2869 2870 2871 2872 2873 2874 2874 2874 2875 2875 2875 2877 2879 2881 2882 2884 2884 2885 2885 2886 2886 2885 2885 2884 2884 2883 2882 2881 2880 2879 2878 2876 2875 2874
2877 2877 2878 2878 2878 2879 2879 2880 2880 2880 2880 2881 2881 2881 2881 2881 2881 2881 2881 2881 2882 2881 2881 2881 2881 2881 2880 2880 2879 2878 2878 2878 2878 2877 2877 2876 2875 2874 2873 2872 2871 2870 2869 2868 2867 2866 2866 2865 2864 2863 2863 2863 2864 2865 2866 2867 2868 2867 2867 2868 2868 2869 2871 2873 2875 2876 2878 2879 2880 2880 2880 2880 2880 2880 2879 2879 2878 2877 2876 2875 2874 2873 2872 2871 2869
2872 2872 2873 2873 2873 2874 2874 2874 2874 2875 2875 2875 2876 2876 2876 2876 2876 2876 2877 2877 2876 2876 2876 2876 2875 2875 2874 2874 2873 2873 2873 2873 2872 2871 2871 2870 2869 2868 2868 2867 2866 2865 2864 2863 2862 2861 2861 2860 2859 2858 2858 2858 2858 2859 2861 2861 2861 2861 2862 2862 2862 2863 2865 2867 2869 2871 2873 2873 2874 2874 2874 2875 2875 2875 2874 2874 2873 2872 2872 2871 2870 2869 2867 2866 2865
2867 2867 2868 2868 2868 2868 2869 2869 2869 2869 2870 2870 2871 2871 2871 2871 2871 2872 2872 2871 2871 2870 2870 2870 2870 2869 2869 2869 2868 2868 2868 2867 2866 2866 2865 2864 2863 2863 2862 2861 2860 2859 2858 2858 2857 2856 2856 2856 2855 2854 2853 2853 2853 2854 2855 2855 2855 2856 2856 2856 2857 2858 2860 2862 2864 2866 2866 2867 2867 2868 2869 2870 2870 2870 2869 2869 2868 2867 2867 2866 2865 2864 2863 2861 2860
2862 2862 2863 2863 2863 2863 2863 2864 2864 2864 2865 2865 2866 2866 2867 2867 2867 2866 2866 2866 2865 2865 2865 2865 2865 2864 2864 2864 2863 2863 2862 2861 2861 2860 2859 2859 2858 2857 2856 2855 2854 2853 2853 2852 2851 2851 2851 2850 2850 2849 2848 2848 2848 2849 2849 2849 2850 2850 2851 2851 2852 2854 2855 2857 2858 2859 2860 2861 2862 2863 2864 2865 2865 2865 2864 2864 2863 2863 2862 2861 2860 2859 2858 2857 2856
2856 2857 2857 2857 2858 2858 2858 2859 2859 2859 2860 2860 2861 2861 2862 2861 2861 2861 2860 2860 2860 2860 2860 2860 2859 2859 2859 2858 2858 2857 2857 2856 2855 2854 2854 2853 2852 2851 2850 2849 2848 2848 2847 2846 2846 2846 2846 2845 2845 2844 2843 2843 2843 2844 2844 2844 2844 2845 2845 2846 2847 2848 2850 2851 2852 2853 2854 2855 2857 2858 2859 2860 2860 2859 2859 2859 2858 2858 2857 2857 2856 2855 2854 2853 2852
2851 2852 2852 2852 2852 2853 2853 2853 2853 2854 2854 2855 2855 2856 2856 2856 2856 2855 2855 2855 2855 2855 2855 2855 2854 2854 2854 2853 2852 2852 2851 2850 2850 2849 2848 2848 2847 2846 2844 2844 2843 2842 2841 2841 2841 2841 2841 2840 2839 2839 2838 2838 2838 2838 2838 2838 2839 2839 2840 2841 2842 2843 2845 2846 2847 2848 2849 2850 2851 2853 2854 2854 2854 2854 2854 2854 2853 2853 2853 2852 2851 2850 2849 2848 2848
2846 2846 2846 2847 2847 2847 2848 2848 2848 2848 2849 2849 2850 2850 2850 2850 2850 2850 2850 2850 2850 2850 2850 2849 2849 2849 2848 2848 2847 2847 2846 2845 2845 2844 2843 2842 2841 2840 2839 2838 2838 2837 2836 2836 2836 2836 2835 2835 2834 2834 2833 2833 2833 2833 2833 2833 2833 2834 2835 2836 2837 2838 2840 2841 2842 2842 2843 2844 2846 2847 2848 2848 2849 2849 2849 2848 2848 2848 2848 2847 2846 2845 2845 2844 2843
2840 2841 2841 2841 2842 2842 2842 2842 2842 2843 2843 2843 2844 2844 2844 2844 2844 2845 2844 2844 2844 2845 2845 2844 2844 2844 2843 2843 2842 2842 2841 2841 2840 2839 2838 2837 2836 2835 2834 2833 2833 2832 2831 2831 2831 2831 2830 2829 2829 2829 2828 2828 2828 2828 2827 2827 2828 2829 2830 2831 2832 2834 2835 2835 2836 2837 2838 2839 2840 2842 2842 2843 2843 2843 2843 2843 2843 2843 2843 2842 2842 2841 2840 2839 2839
2835 2835 2835 2835 2835 2836 2836 2836 2836 2837 2837 2837 2838 2838 2838 2839 2839 2839 2839 2839 2840 2840 2840 2840 2839 2839 2839 2838 2838 2837 2837 2836 2836 2835 2834 2833 2832 2831 2830 2829 2828 2828 2827 2826 2826 2826 2825 2824 2824 2824 2823 2823 2823 2823 2822 2822 2823 2824 2825 2826 2827 2828 2829 2830 2831 2832 2832 2833 2835 2836 2836 2837 2838 2838 2838 2838 2839 2839 2838 2838 2837 2836 2835 2835 2834